Location: Fort Wayne
(41.1310°N, 85.1290°W)
Time: 18:57:40
(UTC-05:00)

Daily predictions for brighter satellites

Satellite Brightness Start Highest point End
(mag) Time Altitude Azimuth Time Altitude Azimuth Time Altitude Azimuth
Cosmos 1833 Rocket 3.8 17:40:24 10° N 17:44:47 23° NE 17:49:08 10° ESE
Cosmos 1908 Rocket 4.3 17:43:21 10° NNE 17:47:10 29° ENE 17:50:57 10° SE
BREEZE-M DEB (TANK) 3.7 17:47:14 10° NNW 17:48:31 15° NNE 17:50:02 10° NE
Cosmos 1844 4.0 17:42:46 10° SSW 17:48:32 75° WNW 17:54:22 10° NNE
Cosmos 1733 Rocket 3.0 17:44:08 10° N 17:48:35 75° E 17:53:01 10° SSE
CENTAUR R/B 3.1 17:46:13 10° SW 17:52:11 58° NW 17:59:02 10° NNE
Cosmos 2233 Rocket 4.1 17:46:11 10° S 17:52:17 57° E 17:58:21 10° NNE
Cosmos 2278 Rocket 2.3 17:47:41 10° S 17:53:13 58° ESE 17:58:48 10° NNE
ALOS 3.7 17:52:25 10° ESE 17:55:22 17° ENE 17:58:19 10° NNE
Meteor 1-26 Rocket 4.2 17:50:27 10° S 17:55:58 67° E 18:01:28 10° NNE
BREEZE-M DEB (TANK) 3.0 17:55:03 10° SSW 17:56:55 26° SE 17:58:53 11° ENE
Cosmos 2242 Rocket 4.0 17:53:30 10° SSW 17:58:03 72° W 18:02:35 10° N
CORIOLIS 4.2 17:53:59 10° SSE 17:59:18 58° ENE 18:04:40 10° N
ERBS 2.5 17:56:07 10° NW 17:59:30 74° SW 18:02:54 10° SE
Cosmos 1862 Rocket 3.6 17:55:32 10° S 17:59:56 90° S 18:04:26 10° N
COSMOS 2455 3.1 17:56:09 10° SW 18:02:09 74° WNW 18:08:12 10° NNE
AQUARIUS 4.1 17:57:59 10° SSE 18:02:26 69° ENE 18:06:55 10° N
SMAP 3.0 17:58:44 10° SSE 18:03:21 72° ENE 18:08:00 10° N
Sich 1 Rocket 4.1 17:59:55 10° N 18:04:03 37° ENE 18:08:11 10° SE
Timation 1 Rocket 4.4 17:59:53 10° SSW 18:05:53 88° WNW 18:11:57 10° NNE
CZ-4 R/B 1.3 18:04:41 10° SSE 18:08:29 58° ENE 18:12:16 10° N
Meteor 1-28 Rocket 3.2 18:05:15 10° NNE 18:08:55 58° E 18:12:34 10° S
Cosmos 1606 3.2 18:10:48 10° SSE 18:14:17 36° E 18:17:46 10° NNE
Okean 1-7 3.7 18:11:01 10° SSE 18:14:55 32° E 18:18:50 10° NNE
Cosmos 1484 Rocket 3.0 18:12:42 10° S 18:16:33 76° WSW 18:20:29 10° NNW
BREEZE-M R/B 2.4 18:14:23 10° NW 18:16:59 56° NNE 18:20:54 11° ESE
CZ-4C R/B 3.7 18:13:02 10° NNW 18:18:57 28° NE 18:24:02 15° E
Landsat 4 3.7 18:16:46 10° NNE 18:20:30 57° E 18:24:15 10° S
EO 1 Del DPAF 3.8 18:19:28 10° NNE 18:23:01 36° E 18:26:33 10° SSE
Cosmos 1763 Rocket 3.9 18:24:32 10° NNW 18:29:42 66° WSW 18:34:46 10° S
Meteor 2-6 Rocket 4.4 18:26:18 10° SSE 18:31:26 46° E 18:36:44 10° NNE
CZ-3A R/B 4.0 18:14:11 10° NW 18:31:41 74° NE 18:37:38 10° ESE
Cosmos 1782 Rocket 3.6 18:27:33 10° N 18:31:49 52° E 18:36:03 10° SSE
Cosmos 2082 Rocket 2.3 18:27:42 10° NNW 18:33:16 50° ENE 18:38:43 10° SE
METEOR-M 4.0 18:30:48 10° SSE 18:36:05 71° ENE 18:41:25 10° N
Meteor 1-20 Rocket 4.1 18:31:27 10° N 18:37:02 89° W 18:42:30 10° S
USA 116 4.1 18:32:48 10° N 18:37:16 74° WNW 18:41:11 10° SSW
Meteor 1-25 Rocket 4.4 18:31:35 10° NNW 18:37:27 81° W 18:43:14 10° S
COSMO-SKYMED 1 2.6 18:33:15 10° NNE 18:37:34 60° E 18:41:50 10° S
YAOGAN 1 2.5 18:33:18 10° SSE 18:37:37 89° NE 18:41:58 10° NNW
Cosmos 1782 2.7 18:35:20 10° S 18:39:21 77° E 18:43:22 10° N
Cosmos 1602 4.4 18:35:58 10° NNE 18:39:25 31° ENE 18:42:52 10° SE
ERS-2 2.1 18:42:07 10° SSE 18:45:47 88° WSW 18:49:29 10° NNW
SL-27 R/B 2.6 18:43:22 10° NNW 18:46:41 68° WSW 18:50:01 10° S
Cosmos 405 Rocket 3.0 18:43:36 10° SSE 18:47:12 42° E 18:47:47 39° ENE
Cosmos 1072 Rocket 4.4 18:42:25 10° S 18:48:35 75° E 18:54:55 10° N
Nadezhda 4 Rocket 4.3 18:45:33 10° N 18:51:13 38° ENE 18:56:51 10° SE
Cosmos 44 Rocket 3.6 18:48:53 10° NNW 18:53:34 45° NE 18:55:05 34° E
Cosmos 1503 Rocket 3.9 18:48:34 10° SSW 18:53:51 84° ESE 18:58:19 15° NNE
MTI 4.4 18:51:38 12° N 18:54:28 55° WNW 18:57:38 10° SSW
Cosmos 2221 Rocket 3.4 18:50:13 10° S 18:54:37 83° E 18:59:03 10° N
Cosmos 2034 Rocket 4.1 18:49:10 10° SSE 18:55:21 57° E 19:01:33 10° NNE
Cosmos 540 Rocket 3.3 18:51:02 10° NNW 18:56:14 82° ENE 19:01:23 10° SSE
Lacrosse 5 4.0 18:55:26 10° NW 18:57:54 13° N 18:59:43 11° NNE
Cosmos 968 Rocket 4.0 18:53:28 10° SSE 18:58:08 36° E 18:58:25 35° E
USA 234 3.2 18:55:35 26° NE 18:59:33 70° SE 19:06:04 10° SW
Cosmos 1703 Rocket 4.3 18:55:15 10° SSW 18:59:37 54° W 19:04:00 10° N
Meteor 1-27 Rocket 3.9 18:55:25 10° S 19:01:07 54° E 19:06:37 11° NNE
Cosmos 292 Rocket 3.7 18:59:06 10° NNW 19:03:49 59° ENE 19:06:28 25° SE
DMSP B5D1-3 4.4 19:03:07 13° NNE 19:07:42 74° ESE 19:12:49 10° S
Meteor 2-20 4.3 19:03:15 10° N 19:09:18 67° E 19:15:19 10° SSE
Meteor 1-10 Rocket 4.4 19:04:23 10° SSW 19:10:03 77° W 19:15:52 10° N
Cosmos 1633 4.0 19:09:18 10° NNW 19:12:44 38° W 19:16:09 10° SSW
Okean 2 Rocket 3.1 19:09:21 10° N 19:13:54 83° W 19:18:25 10° S
FENGYUN 3A 3.6 19:10:50 10° SSE 19:16:15 85° WSW 19:21:42 10° NNW
Cosmos 44 3.1 19:17:09 10° NNW 19:21:54 86° ENE 19:22:54 56° SE
Cosmos 1464 Rocket 4.3 19:17:29 10° SSW 19:23:33 64° W 19:29:40 10° N
Cosmos 1833 Rocket 3.3 19:23:34 10° NNW 19:29:05 57° WSW 19:34:33 10° S
Cosmos 2369 Rocket 4.4 19:25:14 10° SSE 19:25:18 10° SSE 19:25:18 10° SSE
ALOS 3.0 19:27:49 10° S 19:32:22 52° W 19:36:57 10° NNW
Cosmos 2297 4.4 19:27:02 10° SW 19:32:37 54° WNW 19:36:13 22° N
SPOT 3 Rocket 4.5 19:28:51 10° S 19:33:53 48° W 19:38:56 10° NNW
Cosmos 783 Rocket 4.4 19:32:04 10° NNW 19:37:26 88° WSW 19:38:24 61° SSE
Cosmos 2278 Rocket 4.3 19:33:19 10° WSW 19:37:42 22° NW 19:42:07 10° N
Meteor 1-11 Rocket 3.9 19:34:44 10° NNW 19:40:35 74° W 19:46:17 10° S
USA 229 DEB 3.9 19:42:10 10° SSW 19:47:41 51° SSE 19:47:41 51° SSE
USA 229 3.9 19:42:17 10° SSW 19:47:43 50° SSE 19:47:43 50° SSE
Thor Agena Rocket 4.5 20:08:07 43° SW 20:08:07 43° SW 20:11:45 10° SSW
CZ-4C R/B 2.9 20:01:01 10° NW 20:08:18 83° WSW 20:09:18 70° SSE
Cosmos 2082 Rocket 4.4 20:12:37 10° NW 20:16:56 23° W 20:21:13 10° SSW
USA 234 4.2 20:42:56 40° NW 20:42:56 40° NW 20:48:18 10° W
